StationID,Date,MaxTemp,MinTemp,Precipitation,Snowfall,SnowDepth
"CA003012232","2004-10-14",,,10.00,10.00,
"CA003012232","2004-10-15",,,,,50.00
"CA003012232","2004-10-17",,,148.00,148.00,
"CA003012232","2004-10-18",,,140.00,140.00,150.00
"CA003012232","2004-10-19",,,0.00,0.00,160.00
"CA003012232","2004-10-20",,,0.00,0.00,140.00
"CA003012232","2004-10-21",,,0.00,0.00,90.00
"CA003012232","2004-10-22",,,0.00,0.00,90.00
"CA003012232","2004-10-23",,,0.00,0.00,60.00
"CA003012232","2004-10-24",,,0.00,0.00,50.00
"CA003012232","2004-10-25",,,0.00,0.00,60.00
"CA003012232","2004-10-26",,,0.00,0.00,70.00
"CA003012232","2004-10-27",,,,,0.00
"CA003012232","2004-10-29",,,0.00,0.00,
"CA003012232","2004-10-30",,,,,0.00
"CA003012232","2004-11-01",,,0.00,0.00,0.00
"CA003012232","2004-11-02",,,0.00,0.00,0.00
"CA003012232","2004-11-03",,,0.00,0.00,0.00
"CA003012232","2004-11-04",,,0.00,0.00,0.00
"CA003012232","2004-11-05",,,0.00,0.00,0.00
"CA003012232","2004-11-06",,,0.00,0.00,0.00
"CA003012232","2004-11-07",,,0.00,0.00,0.00
"CA003012232","2004-11-08",,,0.00,0.00,0.00
"CA003012232","2004-11-09",,,0.00,0.00,0.00
"CA003012232","2004-11-10",,,0.00,0.00,0.00
"CA003012232","2004-11-11",,,0.00,0.00,0.00
"CA003012232","2004-11-12",,,0.00,0.00,0.00
"CA003012232","2004-11-13",,,0.00,0.00,0.00
"CA003012232","2004-11-14",,,0.00,0.00,0.00
"CA003012232","2004-11-15",,,0.00,0.00,0.00
"CA003012232","2004-11-16",,,0.00,0.00,0.00
"CA003012232","2004-11-17",,,0.00,0.00,0.00
"CA003012232","2004-11-18",,,0.00,0.00,0.00
"CA003012232","2004-11-19",,,0.00,0.00,0.00
"CA003012232","2004-11-20",,,0.00,0.00,0.00
"CA003012232","2004-11-21",,,0.00,0.00,0.00
"CA003012232","2004-11-22",,,0.00,0.00,0.00
"CA003012232","2004-11-23",,,0.00,0.00,0.00
"CA003012232","2004-11-24",,,0.00,0.00,0.00
"CA003012232","2004-11-25",,,0.00,0.00,0.00
"CA003012232","2004-11-26",,,0.00,0.00,0.00
"CA003012232","2004-11-27",,,0.00,0.00,0.00
"CA003012232","2004-11-28",,,0.00,0.00,0.00
"CA003012232","2004-11-29",,,0.00,0.00,0.00
"CA003012232","2004-11-30",,,0.00,0.00,0.00
"CA003012232","2004-12-01",,,0.00,0.00,0.00
"CA003012232","2004-12-02",,,0.00,0.00,0.00
"CA003012232","2004-12-03",,,0.00,0.00,0.00
"CA003012232","2004-12-04",,,63.00,63.00,0.00
"CA003012232","2004-12-05",,,45.00,45.00,50.00
"CA003012232","2004-12-06",,,0.00,0.00,70.00
"CA003012232","2004-12-07",,,0.00,0.00,60.00
"CA003012232","2004-12-08",,,40.00,40.00,60.00
"CA003012232","2004-12-09",,,0.00,0.00,60.00
"CA003012232","2004-12-10",,,0.00,0.00,60.00
"CA003012232","2004-12-11",,,10.00,10.00,50.00
"CA003012232","2004-12-12",,,0.00,0.00,30.00
"CA003012232","2004-12-13",,,0.00,0.00,40.00
"CA003012232","2004-12-14",,,0.00,0.00,40.00
"CA003012232","2004-12-15",,,0.00,0.00,30.00
"CA003012232","2004-12-16",,,0.00,0.00,20.00
"CA003012232","2004-12-17",,,0.00,0.00,20.00
"CA003012232","2004-12-18",,,0.00,0.00,20.00
"CA003012232","2004-12-19",,,60.00,60.00,20.00
"CA003012232","2004-12-20",,,50.00,50.00,80.00
"CA003012232","2004-12-21",,,20.00,20.00,80.00
"CA003012232","2004-12-22",,,20.00,20.00,50.00
"CA003012232","2004-12-23",,,30.00,30.00,60.00
"CA003012232","2004-12-24",,,0.00,0.00,80.00
"CA003012232","2004-12-25",,,100.00,100.00,80.00
"CA003012232","2004-12-26",,,90.00,90.00,100.00
"CA003012232","2004-12-27",,,0.00,0.00,80.00
"CA003012232","2004-12-28",,,0.00,0.00,80.00
"CA003012232","2004-12-29",,,30.00,30.00,50.00
"CA003012232","2004-12-30",,,140.00,140.00,80.00
"CA003012232","2004-12-31",,,40.00,30.00,120.00
"CA003012232","2005-01-01",,,0.00,0.00,100.00
"CA003012232","2005-01-02",,,0.00,0.00,100.00
"CA003012232","2005-01-03",,,0.00,0.00,90.00
"CA003012232","2005-01-04",,,0.00,0.00,90.00
"CA003012232","2005-01-05",,,10.00,10.00,80.00
"CA003012232","2005-01-06",,,130.00,130.00,90.00
"CA003012232","2005-01-07",,,20.00,20.00,160.00
"CA003012232","2005-01-08",,,10.00,10.00,140.00
"CA003012232","2005-01-09",,,10.00,10.00,150.00
"CA003012232","2005-01-10",,,0.00,0.00,150.00
"CA003012232","2005-01-11",,,30.00,30.00,150.00
"CA003012232","2005-01-12",,,0.00,0.00,180.00
"CA003012232","2005-01-13",,,0.00,0.00,200.00
"CA003012232","2005-01-14",,,0.00,0.00,200.00
"CA003012232","2005-01-15",,,0.00,0.00,200.00
"CA003012232","2005-01-16",,,0.00,0.00,190.00
"CA003012232","2005-01-17",,,0.00,0.00,180.00
"CA003012232","2005-01-18",,,20.00,20.00,180.00
"CA003012232","2005-01-19",,,50.00,50.00,200.00
"CA003012232","2005-01-20",,,20.00,20.00,240.00
"CA003012232","2005-01-21",,,0.00,0.00,270.00
"CA003012232","2005-01-22",,,0.00,0.00,230.00
"CA003012232","2005-01-23",,,0.00,0.00,200.00
"CA003012232","2005-01-24",,,0.00,0.00,190.00
"CA003012232","2005-01-25",,,0.00,0.00,140.00
"CA003012232","2005-01-26",,,0.00,0.00,140.00
"CA003012232","2005-01-27",,,0.00,0.00,140.00
"CA003012232","2005-01-28",,,0.00,0.00,140.00
"CA003012232","2005-01-29",,,0.00,0.00,210.00
"CA003012232","2005-01-30",,,0.00,0.00,200.00
"CA003012232","2005-01-31",,,0.00,0.00,190.00
"CA003012232","2005-02-01",,,0.00,0.00,180.00
"CA003012232","2005-02-02",,,0.00,0.00,140.00
"CA003012232","2005-02-03",,,90.00,90.00,100.00
"CA003012232","2005-02-04",,,50.00,50.00,140.00
"CA003012232","2005-02-05",,,20.00,20.00,160.00
"CA003012232","2005-02-06",,,10.00,10.00,170.00
"CA003012232","2005-02-07",,,0.00,0.00,180.00
"CA003012232","2005-02-08",,,0.00,0.00,180.00
"CA003012232","2005-02-09",,,0.00,0.00,170.00
"CA003012232","2005-02-10",,,0.00,0.00,150.00
"CA003012232","2005-02-11",,,0.00,0.00,130.00
"CA003012232","2005-02-12",,,0.00,0.00,130.00
"CA003012232","2005-02-13",,,0.00,0.00,130.00
"CA003012232","2005-02-14",,,0.00,0.00,180.00
"CA003012232","2005-02-15",,,0.00,0.00,200.00
"CA003012232","2005-02-16",,,0.00,0.00,180.00
"CA003012232","2005-02-17",,,0.00,0.00,170.00
"CA003012232","2005-02-18",,,0.00,0.00,140.00
"CA003012232","2005-02-19",,,10.00,10.00,150.00
"CA003012232","2005-02-20",,,0.00,0.00,140.00
"CA003012232","2005-02-21",,,0.00,0.00,130.00
"CA003012232","2005-02-22",,,0.00,0.00,180.00
"CA003012232","2005-02-23",,,0.00,0.00,160.00
"CA003012232","2005-02-24",,,0.00,0.00,140.00
"CA003012232","2005-02-25",,,0.00,0.00,130.00
"CA003012232","2005-02-26",,,0.00,0.00,80.00
"CA003012232","2005-02-27",,,0.00,0.00,80.00
"CA003012232","2005-02-28",,,0.00,0.00,40.00
"CA003012232","2005-03-01",,,0.00,0.00,50.00
"CA003012232","2005-03-02",,,0.00,0.00,90.00
"CA003012232","2005-03-03",,,0.00,0.00,70.00
"CA003012232","2005-03-04",,,0.00,0.00,60.00
"CA003012232","2005-03-05",,,0.00,0.00,50.00
"CA003012232","2005-03-06",,,0.00,0.00,20.00
"CA003012232","2005-03-07",,,0.00,0.00,10.00
"CA003012232","2005-03-08",,,0.00,0.00,10.00
"CA003012232","2005-03-09",,,0.00,0.00,10.00
"CA003012232","2005-03-10",,,0.00,0.00,0.00
"CA003012232","2005-03-11",,,0.00,0.00,0.00
"CA003012232","2005-03-12",,,0.00,0.00,0.00
"CA003012232","2005-03-13",,,0.00,0.00,0.00
"CA003012232","2005-03-14",,,0.00,0.00,0.00
"CA003012232","2005-03-15",,,60.00,60.00,0.00
"CA003012232","2005-03-16",,,20.00,20.00,60.00
"CA003012232","2005-03-17",,,0.00,0.00,70.00
"CA003012232","2005-03-18",,,0.00,0.00,40.00
"CA003012232","2005-03-19",,,10.00,10.00,40.00
"CA003012232","2005-03-20",,,20.00,20.00,40.00
"CA003012232","2005-03-21",,,50.00,50.00,60.00
"CA003012232","2005-03-22",,,150.00,150.00,100.00
"CA003012232","2005-03-23",,,0.00,0.00,180.00
"CA003012232","2005-03-24",,,0.00,0.00,
"CA003012232","2005-03-25",,,0.00,0.00,
"CA003012232","2005-03-26",,,0.00,0.00,110.00
"CA003012232","2005-03-27",,,0.00,0.00,
"CA003012232","2005-03-28",,,0.00,0.00,30.00
"CA003012232","2005-03-29",,,0.00,0.00,10.00
"CA003012232","2005-03-30",,,0.00,0.00,0.00
"CA003012232","2005-03-31",,,0.00,0.00,0.00
"CA003012232","2005-04-01",,,0.00,0.00,
"CA003012232","2005-04-02",,,0.00,0.00,
"CA003012232","2005-04-03",,,0.00,0.00,0.00
"CA003012232","2005-04-04",,,0.00,0.00,0.00
"CA003012232","2005-04-05",,,0.00,0.00,0.00
"CA003012232","2005-04-06",,,0.00,0.00,0.00
"CA003012232","2005-04-07",,,0.00,0.00,0.00
"CA003012232","2005-04-08",,,0.00,0.00,0.00
"CA003012232","2005-04-09",,,0.00,0.00,0.00
"CA003012232","2005-04-10",,,0.00,0.00,0.00
"CA003012232","2005-04-11",,,0.00,0.00,0.00
"CA003012232","2005-04-12",,,0.00,0.00,0.00
"CA003012232","2005-04-13",,,0.00,0.00,0.00
"CA003012232","2005-04-14",,,0.00,0.00,0.00
"CA003012232","2005-04-15",,,0.00,0.00,0.00
"CA003012232","2005-04-16",,,0.00,0.00,0.00
"CA003012232","2005-04-17",,,0.00,0.00,0.00
"CA003012232","2005-04-18",,,0.00,0.00,0.00
"CA003012232","2005-04-19",,,0.00,0.00,0.00
"CA003012232","2005-04-20",,,0.00,0.00,0.00
"CA003012232","2005-04-21",,,0.00,0.00,0.00
"CA003012232","2005-04-22",,,0.00,0.00,0.00
"CA003012232","2005-04-23",,,0.00,0.00,0.00
"CA003012232","2005-04-24",,,0.00,0.00,0.00
"CA003012232","2005-04-25",,,0.00,0.00,0.00
"CA003012232","2005-04-26",,,0.00,0.00,0.00
"CA003012232","2005-04-27",,,0.00,0.00,0.00
"CA003012232","2005-04-28",,,0.00,0.00,0.00
"CA003012232","2005-04-29",,,10.00,10.00,0.00
"CA003012232","2005-04-30",,,0.00,0.00,10.00
"CA003012232","2005-11-01",,,0.00,0.00,
"CA003012232","2005-11-02",,,0.00,0.00,
"CA003012232","2005-11-03",,,0.00,0.00,
"CA003012232","2005-11-04",,,0.00,0.00,
"CA003012232","2005-11-05",,,0.00,0.00,
"CA003012232","2005-11-06",,,0.00,0.00,
"CA003012232","2005-11-07",,,0.00,0.00,
"CA003012232","2005-11-08",,,0.00,0.00,
"CA003012232","2005-11-09",,,0.00,0.00,
"CA003012232","2005-11-10",,,0.00,0.00,
"CA003012232","2005-11-11",,,0.00,0.00,
"CA003012232","2005-11-12",,,0.00,0.00,
"CA003012232","2005-11-13",,,0.00,0.00,
"CA003012232","2005-11-14",,,0.00,0.00,
"CA003012232","2005-11-15",,,0.00,0.00,
"CA003012232","2005-11-16",,,0.00,0.00,
"CA003012232","2005-11-17",,,0.00,0.00,0.00
"CA003012232","2005-11-18",,,0.00,0.00,0.00
"CA003012232","2005-11-19",,,0.00,0.00,0.00
"CA003012232","2005-11-20",,,0.00,0.00,
"CA003012232","2005-11-21",,,0.00,0.00,0.00
"CA003012232","2005-11-22",,,0.00,0.00,0.00
"CA003012232","2005-11-23",,,0.00,0.00,0.00
"CA003012232","2005-11-24",,,0.00,0.00,0.00
"CA003012232","2005-11-25",,,0.00,0.00,
"CA003012232","2005-11-26",,,0.00,0.00,0.00
"CA003012232","2005-11-27",,,0.00,0.00,0.00
"CA003012232","2005-11-28",,,0.00,0.00,0.00
"CA003012232","2005-11-29",,,0.00,0.00,0.00
"CA003012232","2005-11-30",,,2.00,2.00,0.00
"CA003012232","2005-12-01",,,0.00,0.00,0.00
"CA003012232","2005-12-02",,,10.00,10.00,0.00
"CA003012232","2005-12-03",,,14.00,14.00,20.00
"CA003012232","2005-12-04",,,13.00,13.00,0.00
"CA003012232","2005-12-05",,,20.00,20.00,30.00
"CA003012232","2005-12-06",,,0.00,0.00,40.00
"CA003012232","2005-12-07",,,0.00,0.00,40.00
"CA003012232","2005-12-08",,,0.00,0.00,40.00
"CA003012232","2005-12-09",,,0.00,0.00,0.00
"CA003012232","2005-12-10",,,0.00,0.00,0.00
"CA003012232","2005-12-11",,,0.00,0.00,0.00
"CA003012232","2005-12-12",,,0.00,0.00,0.00
"CA003012232","2005-12-13",,,10.00,10.00,0.00
"CA003012232","2005-12-14",,,0.00,0.00,10.00
"CA003012232","2005-12-15",,,0.00,0.00,0.00
"CA003012232","2005-12-16",,,0.00,0.00,0.00
"CA003012232","2005-12-17",,,0.00,0.00,0.00
"CA003012232","2005-12-18",,,0.00,0.00,0.00
"CA003012232","2005-12-19",,,0.00,0.00,0.00
"CA003012232","2005-12-20",,,0.00,0.00,0.00
"CA003012232","2005-12-21",,,0.00,0.00,0.00
"CA003012232","2005-12-22",,,0.00,0.00,0.00
"CA003012232","2005-12-23",,,0.00,0.00,0.00
"CA003012232","2005-12-24",,,0.00,0.00,0.00
"CA003012232","2005-12-25",,,0.00,0.00,0.00
"CA003012232","2005-12-26",,,0.00,0.00,0.00
"CA003012232","2005-12-27",,,0.00,0.00,0.00
"CA003012232","2005-12-28",,,0.00,0.00,0.00
"CA003012232","2005-12-29",,,0.00,0.00,0.00
"CA003012232","2005-12-30",,,0.00,0.00,0.00
"CA003012232","2005-12-31",,,0.00,0.00,0.00
"CA003012232","2006-01-01",,,0.00,0.00,0.00
"CA003012232","2006-01-02",,,0.00,0.00,0.00
"CA003012232","2006-01-03",,,0.00,0.00,0.00
"CA003012232","2006-01-04",,,0.00,0.00,0.00
"CA003012232","2006-01-05",,,0.00,0.00,0.00
"CA003012232","2006-01-06",,,0.00,0.00,0.00
"CA003012232","2006-01-07",,,0.00,0.00,0.00
"CA003012232","2006-01-08",,,0.00,0.00,0.00
"CA003012232","2006-01-09",,,0.00,0.00,0.00
"CA003012232","2006-01-10",,,0.00,0.00,0.00
"CA003012232","2006-01-11",,,0.00,0.00,0.00
"CA003012232","2006-01-12",,,0.00,0.00,0.00
"CA003012232","2006-01-13",,,0.00,0.00,0.00
"CA003012232","2006-01-14",,,0.00,0.00,0.00
"CA003012232","2006-01-15",,,0.00,0.00,10.00
"CA003012232","2006-01-16",,,0.00,0.00,0.00
"CA003012232","2006-01-17",,,0.00,0.00,0.00
"CA003012232","2006-01-18",,,0.00,0.00,0.00
"CA003012232","2006-01-19",,,0.00,0.00,0.00
"CA003012232","2006-01-20",,,0.00,0.00,0.00
"CA003012232","2006-01-21",,,0.00,0.00,0.00
"CA003012232","2006-01-22",,,0.00,0.00,0.00
"CA003012232","2006-01-23",,,0.00,0.00,0.00
"CA003012232","2006-01-24",,,0.00,0.00,0.00
"CA003012232","2006-01-25",,,0.00,0.00,0.00
"CA003012232","2006-01-26",,,0.00,0.00,0.00
"CA003012232","2006-01-27",,,0.00,0.00,0.00
"CA003012232","2006-01-28",,,0.00,0.00,0.00
"CA003012232","2006-01-29",,,0.00,0.00,0.00
"CA003012232","2006-01-30",,,0.00,0.00,0.00
"CA003012232","2006-01-31",,,0.00,0.00,0.00
"CA003012232","2006-02-01",,,0.00,0.00,0.00
"CA003012232","2006-02-02",,,0.00,0.00,
"CA003012232","2006-02-03",,,0.00,0.00,0.00
"CA003012232","2006-02-04",,,0.00,0.00,0.00
"CA003012232","2006-02-05",,,0.00,0.00,0.00
"CA003012232","2006-02-06",,,0.00,0.00,
"CA003012232","2006-02-07",,,0.00,0.00,0.00
"CA003012232","2006-02-08",,,0.00,0.00,
"CA003012232","2006-02-09",,,0.00,0.00,0.00
"CA003012232","2006-02-10",,,0.00,0.00,0.00
"CA003012232","2006-02-11",,,0.00,0.00,0.00
"CA003012232","2006-02-12",,,0.00,0.00,0.00
"CA003012232","2006-02-13",,,0.00,0.00,0.00
"CA003012232","2006-02-14",,,0.00,0.00,0.00
"CA003012232","2006-02-15",,,0.00,0.00,0.00
"CA003012232","2006-02-16",,,0.00,0.00,0.00
"CA003012232","2006-02-17",,,0.00,0.00,0.00
"CA003012232","2006-02-18",,,0.00,0.00,
"CA003012232","2006-02-19",,,0.00,0.00,
"CA003012232","2006-02-20",,,0.00,0.00,0.00
"CA003012232","2006-02-21",,,20.00,20.00,0.00
"CA003012232","2006-02-22",,,20.00,20.00,10.00
"CA003012232","2006-02-23",,,0.00,0.00,30.00
"CA003012232","2006-02-24",,,0.00,0.00,
"CA003012232","2006-02-25",,,0.00,0.00,
"CA003012232","2006-02-26",,,0.00,0.00,
"CA003012232","2006-02-27",,,0.00,0.00,30.00
"CA003012232","2006-02-28",,,0.00,0.00,30.00
"CA003012232","2006-03-01",,,0.00,0.00,
"CA003012232","2006-03-02",,,0.00,0.00,180.00
"CA003012232","2006-03-03",,,60.00,60.00,140.00
"CA003012232","2006-03-04",,,0.00,0.00,120.00
"CA003012232","2006-03-05",,,0.00,0.00,
"CA003012232","2006-03-06",,,0.00,0.00,50.00
"CA003012232","2006-03-07",,,20.00,20.00,
"CA003012232","2006-03-08",,,10.00,10.00,90.00
"CA003012232","2006-03-09",,,0.00,0.00,140.00
"CA003012232","2006-03-10",,,70.00,70.00,130.00
"CA003012232","2006-03-11",,,10.00,10.00,170.00
"CA003012232","2006-03-12",,,0.00,0.00,220.00
"CA003012232","2006-03-13",,,0.00,0.00,180.00
"CA003012232","2006-03-14",,,0.00,0.00,200.00
"CA003012232","2006-03-15",,,0.00,0.00,180.00
"CA003012232","2006-03-16",,,0.00,0.00,180.00
"CA003012232","2006-03-17",,,80.00,80.00,170.00
"CA003012232","2006-03-18",,,200.00,200.00,230.00
"CA003012232","2006-03-19",,,0.00,0.00,410.00
"CA003012232","2006-03-20",,,10.00,10.00,410.00
"CA003012232","2006-03-21",,,0.00,0.00,370.00
"CA003012232","2006-03-22",,,0.00,0.00,
"CA003012232","2006-03-23",,,0.00,0.00,310.00
"CA003012232","2006-03-24",,,0.00,0.00,270.00
"CA003012232","2006-03-25",,,10.00,10.00,250.00
"CA003012232","2006-03-26",,,0.00,0.00,260.00
"CA003012232","2006-03-27",,,0.00,0.00,230.00
"CA003012232","2006-03-28",,,0.00,0.00,210.00
"CA003012232","2006-03-29",,,0.00,0.00,
"CA003012232","2006-03-30",,,0.00,0.00,190.00
"CA003012232","2006-03-31",,,0.00,0.00,180.00
"CA003012232","2006-04-01",,,0.00,0.00,50.00
"CA003012232","2006-04-02",,,0.00,0.00,30.00
"CA003012232","2006-04-03",,,0.00,0.00,0.00
"CA003012232","2006-04-04",,,0.00,0.00,0.00
"CA003012232","2006-04-05",,,0.00,0.00,0.00
"CA003012232","2006-04-06",,,0.00,0.00,0.00
"CA003012232","2006-04-07",,,0.00,0.00,0.00
"CA003012232","2006-04-08",,,0.00,0.00,0.00
"CA003012232","2006-04-09",,,0.00,0.00,0.00
"CA003012232","2006-04-10",,,0.00,0.00,0.00
"CA003012232","2006-04-11",,,0.00,0.00,0.00
"CA003012232","2006-04-12",,,0.00,0.00,0.00
"CA003012232","2006-04-13",,,0.00,0.00,0.00
"CA003012232","2006-04-14",,,0.00,0.00,0.00
"CA003012232","2006-04-15",,,0.00,0.00,0.00
"CA003012232","2006-04-16",,,0.00,0.00,0.00
"CA003012232","2006-04-17",,,0.00,0.00,0.00
"CA003012232","2006-04-18",,,0.00,0.00,0.00
"CA003012232","2006-04-19",,,0.00,0.00,0.00
"CA003012232","2006-04-20",,,0.00,0.00,0.00
"CA003012232","2006-04-21",,,0.00,0.00,0.00
"CA003012232","2006-04-22",,,0.00,0.00,0.00
"CA003012232","2006-04-23",,,0.00,0.00,0.00
"CA003012232","2006-04-24",,,0.00,0.00,0.00
"CA003012232","2006-04-25",,,0.00,0.00,0.00
"CA003012232","2006-04-26",,,0.00,0.00,0.00
"CA003012232","2006-04-27",,,0.00,0.00,0.00
"CA003012232","2006-04-28",,,0.00,0.00,0.00
"CA003012232","2006-04-29",,,0.00,0.00,0.00
"CA003012232","2006-04-30",,,0.00,0.00,0.00
